Regional Weather Roundup
Issued by NWS

Home | Current Version | Previous Version | Graphics & Text | Print | Product List | Glossary On
Versions: 1 2 3 4 5 6 7 8 9 10 11 12 13 14 15 16 17 18 19 20 21 22 23 24 25 26 27 28 29 30 31 32 33 34 35 36 37 38 39 40 41 42 43 44 45 46 47 48 49 50
000
ASUS43 KDMX 240403
RWRIA

WEATHER ROUNDUP FOR IOWA
NATIONAL WEATHER SERVICE DES MOINES IA
1100 PM CDT SAT JUL 23 2016

NOTE: "FAIR" INDICATES FEW OR NO CLOUDS BELOW 12,000 FEET WITH NO
SIGNIFICANT WEATHER AND/OR OBSTRUCTIONS TO VISIBILITY.

* - THESE STATIONS ARE NOT NWS STATIONS...THUS NOT UNDER NWS
QUALITY CONTROL.  THEY ALSO DO NOT REPORT WEATHER SUCH
AS PRECIPITATION OR FOG.

IAZ001>003-012>014-020>022-031>034-043>046-240500-
   NORTHWEST IOWA

CITY           SKY/WX    TMP DP  RH WIND       PRES   REMARKS
CARROLL *      CLOUDY    79  77  94 S6        29.81S HX  83
CHEROKEE *     CLEAR     79  78  96 S6        29.79S HX  84
DENISON *      CLOUDY    82  77  83 S9G16     29.80R HX  91
LE MARS *      CLEAR     81  77  89 S6        29.79R HX  88
SHELDON *      CLEAR     79  77  94 SW7       29.78R HX  83
SIOUX CITY     CLEAR     82  76  81 SE7       29.78R HX  89
SPENCER        CLEAR     78  76  93 S6        29.79R HX  81
STORM LAKE *   CLOUDY    79  77  94 S8        29.82R HX  83
$$

IAZ055>058-069>071-079>083-090>094-240500-
   SOUTHWEST IOWA

CITY           SKY/WX    TMP DP  RH WIND       PRES   REMARKS
ATLANTIC *     CLOUDY    81  75  83 S9        29.83R HX  86
CLARINDA *       N/A     79  73  83 MISG      29.86S HX  82
COUNCIL BLFS *   N/A     81  77  89 S7        29.82R HX  88
CRESTON *      CLEAR     79  75  89 S12       29.87S HX  82
HARLAN  *      CLOUDY    81  77  89 S7        29.85S HX  88
LAMONI         CLOUDY    80  78  94 S7        29.87R HX  88
RED OAK *      CLOUDY    81  75  83 S8        29.83R HX  86
SHENANDOAH *   CLOUDY    82  77  83 S6        29.83R HX  91
$$

IAZ047>049-059>061-072>074-084-240500-
   CENTRAL IOWA

CITY           SKY/WX    TMP DP  RH WIND       PRES   REMARKS
AMES           CLEAR     80  78  94 S8        29.82R HX  88
ANKENY *         N/A    N/A N/A N/A MISG        N/A
BOONE *          N/A     79  75  89 S5        29.82R HX  82
CHARITON *       N/A    N/A N/A N/A MISG        N/A
DES MOINES     PTCLDY    82  77  84 S8        29.82S HX  90
GRINNELL*      CLEAR     81  76  84 S8        29.86S HX  87
KNOXVILLE *    MOCLDY    82  77  83 S12       29.84S HX  91
MARSHALLTOWN   CLEAR     81  78  91 S9        29.83R HX  89
NEWTON *       CLEAR     81  79  94 S9        29.84R HX  89
PELLA *        CLEAR     81  75  83 S7        29.86S HX  87
PERRY *          N/A     79  77  94 S8        29.82R HX  83
$$

IAZ004>006-015-016-023>025-035-036-240500-
   NORTH CENTRAL IOWA

CITY           SKY/WX    TMP DP  RH WIND       PRES   REMARKS
ALGONA *       CLEAR     77  77 100 S6        29.80S
ESTHERVILLE    CLEAR     76  75  97 S6        29.79R
FORT DODGE *   CLEAR     81  75  83 S10       29.81R HX  86
MASON CITY     CLOUDY    77  75  93 SE6       29.83R
FOREST CITY *  FOG       75  75 100 E3        29.81S VSB 1/2
IOWA FALLS *     N/A     80  76  89 S5        29.84R HX  84
$$

IAZ007>011-017>019-026>030-037>042-050>054-066-240500-
   NORTHEAST IOWA

CITY           SKY/WX    TMP DP  RH WIND       PRES   REMARKS
CEDAR RAPIDS   CLEAR     77  77 100 SE6       29.87R
CHARLES CITY * CLEAR     72  72 100 SE6       29.83S
CLINTON *      CLOUDY    73  69  87 S13       29.91S
DECORAH *      MOCLDY    70  70 100 SE7       29.84S
DUBUQUE        CLOUDY    72  70  93 S9        29.89F
MONTICELLO *   PTCLDY    73  72  94 SE7       29.88R
OELWEIN *      CLEAR     73  72  94 S12       29.85S
WATERLOO       CLEAR     76  74  93 S7        29.82R
$$

IAZ064-065-067-068-078-240500-
   EAST CENTRAL IOWA

CITY           SKY/WX    TMP DP  RH WIND       PRES   REMARKS
DAVENPORT      CLOUDY    75  72  90 SE9       29.91F
IOWA CITY      CLEAR     78  76  93 SE8       29.88R HX  81
MT. PLEASANT * CLEAR     83  83 100 SE8       29.90R HX 102
MUSCATINE *    PTCLDY    84  81  89 SE9       29.89R HX  98
QUAD CITIES    CLOUDY    77  70  79 SE12      29.91S
$$

IAZ062-063-075>077-085>089-095>099-240500-
   SOUTHEAST IOWA

CITY           SKY/WX    TMP DP  RH WIND       PRES   REMARKS
BURLINGTON     CLOUDY    83  80  91 S10       29.91R HX  95
FAIRFIELD *    CLEAR     82  77  83 S8        29.89R HX  91
KEOKUK *       CLOUDY    84  79  84 SE3       29.91R HX  96
CENTERVILLE *    N/A     81  77  89 CALM      29.90S HX  88
OTTUMWA        CLEAR     81  76  84 S8        29.87R HX  87
WASHINGTON *   CLEAR     82  79  89 S8        29.90R HX  93
$$

ABBREVIATIONS USED IN REMARKS
   TC - TEMPERATURES IN CELSIUS
  WCI - WIND CHILL INDEX
   HX - HEAT INDEX
  VSB - VISIBILITY
$$





USA.gov is the U.S. government's official web portal to all federal, state and local government web resources and services.